Hourly Data Report for July 27, 2021

SECHELT AUT
BRITISH COLUMBIA
Current Station Operator: ECCC - MSC

49°27'28.788" N
123°42'54.945" W
86.20 m
1047172
71638
VOU

Download Data

Hourly Data (July 2021)
Hourly Data Report for July 27, 2021
TIME
LST
Temp Definition
°C
Dew Point Definition
°C
Rel Hum Definition
%
Precip. Amount Definition
mm

Wind Dir Definition
10's deg

Wind Spd Definition
km/h
Visibility Definition
km
Stn Press Definition
kPa
Hmdx Definition


Wind Chill Definition


Weather Definition


00:00 17.1 12.8 76 0.0 34 4   100.45     LegendNANA
01:00 16.0 12.0 77 0.0 33 1   100.48     LegendNANA
02:00 15.5 12.1 80 0.0 34 2   100.52     LegendNANA
03:00 14.8 12.0 83 0.0 33 2   100.54     LegendNANA
04:00 14.4 12.4 88 0.0 0 1   100.55     LegendNANA
05:00 14.3 12.8 90 0.0 0 1   100.58     LegendNANA
06:00 15.9 12.9 82 0.0   0   100.63     LegendNANA
07:00 18.8 14.7 77 0.0 28 4   100.69     LegendNANA
08:00 19.5 15.0 75 0.0 27 6   100.71     LegendNANA
09:00 19.9 14.8 72 0.0 27 6   100.75     LegendNANA
10:00 20.8 14.9 69 0.0 27 7   100.75 25   LegendNANA
11:00 21.6 15.1 67 0.0 27 6   100.76 26   LegendNANA
12:00 24.4 16.1 60 0.0 27 4   100.74 29   LegendNANA
13:00 23.9 15.3 59 0.0 28 7   100.71 28   LegendNANA
14:00 26.1 14.9 50 0.0 26 4   100.71 30   LegendNANA
15:00 26.4 15.8 52 0.0 17 3   100.69 31   LegendNANA
16:00 24.9 14.2 52 0.0 28 6   100.68 28   LegendNANA
17:00 25.9 14.0 48 0.0 27 5   100.67 29   LegendNANA
18:00 26.3 12.2 42 0.0 22 3   100.64 29   LegendNANA
19:00 24.4 13.4 50 0.0 0 1   100.66 27   LegendNANA
20:00 20.4 13.1 63 0.0 0 1   100.69     LegendNANA
21:00 18.0 12.7 71 0.0   0   100.73     LegendNANA
22:00 17.3 11.5 69 0.0   0   100.79     LegendNANA
23:00 16.7 10.8 68 0.0 33 3   100.81     LegendNANA

Notes on Data Quality.

Legend

  • E = Estimated
  • M = Missing
  • NA = Not Available*
  • [empty] = Indicates an unobserved value
Date modified: